Starlink 35967

operational
NORAD ID: 66634 Int'l Des: 2025-271 Owner: SPXS Country: US Constellation: starlink
LEOCIRCULAR

About Starlink 35967

Description loading...

Live Position

Loading 3D Globe...

Upcoming Passes

Altitude History

Altitude vs Time

uPlot chart will show altitude changes over time

Two-Line Element Set

1 66634U 25271T 25340.91668981 -.01379577 00000-0 -10420-1 0 9993
2 66634 53.1572 215.5631 0001152 103.8425 3.2766 15.74570806 3230
Epoch: Dec 6, 2025 • Age: 15 hours

Current Status

Altitude 356.8 km
Velocity 7.70 km/s
Sub-Earth Point 52.30°N, 13.52°E
Launch Date Nov 23, 2025
Age 14 days
Type internet

Technical Details

Classification Payload
Mass 575.00 kg
Dry Mass 530.00 kg
Total Mass 575.00 kg
Length 0.30 m
Diameter 4.10 m
Span 29.00 m
Shape Box + pan
Manufacturer SPXS
Bus Type Starlink V2MO
Phase Status In Orbit
Owner/State SPXS/US

Large Constellations

Loading constellations...